Regional Weather Roundup
Issued by NWS

Home | Current Version | Previous Version | Text Only | Print | Product List | Glossary Off
Versions: 1 2 3 4 5 6 7 8 9 10 11 12 13 14 15 16 17 18 19 20 21 22 23 24 25 26 27 28 29 30 31 32 33 34 35 36 37 38 39 40 41 42 43 44 45 46 47 48 49 50

000
ASUS43 KLOT 272310
RWRIL

ILLINOIS REGIONAL WEATHER ROUNDUP
NATIONAL WEATHER SERVICE CHICAGO/ROMEOVILLE IL
500 PM CST FRI FEB 27 2015

NOTE: "FAIR" INDICATES FEW OR NO CLOUDS BELOW 12,000 FEET WITH NO
SIGNIFICANT WEATHER AND/OR OBSTRUCTIONS TO VISIBILITY.

* THESE STATIONS ARE NOT UNDER NWS QUALITY CONTROL. THEY ALSO MAY NOT
  REPORT WEATHER SUCH AS PRECIPITATION OR FOG.

ILZ001-002-007-009-015-016-024-280000-
NORTHWEST ILLINOIS

CITY           SKY/WX    TMP DP  RH WIND       PRES   REMARKS
MOLINE         CLEAR      9  -5  53 SW5       30.63R WCI   1
STERLING*      CLEAR     10  -2  56 W5        30.63R WCI   2
SAVANNA*       CLEAR     10  -4  52 SW7       30.62R WCI  -1
$$

ILZ003-004-008-010-011-017-018-280000-
NORTH CENTRAL ILLINOIS

CITY           SKY/WX    TMP DP  RH WIND       PRES   REMARKS
ROCKFORD       CLEAR     11  -5  48 W5        30.60S WCI   3
FREEPORT*      CLEAR      8  -3  59 SW8       30.60R WCI  -4
ROCHELLE*      CLEAR      4  -2  75 SW9       30.61S WCI -10
DE KALB*       CLEAR      8  -4  59 SW7       30.59S WCI  -4
PERU*          CLEAR     11  -2  56 NW7       30.64S WCI   0
$$

ILZ005-006-012>014-019>023-280000-
NORTHEAST ILLINOIS

CITY           SKY/WX    TMP DP  RH WIND       PRES   REMARKS
CHICAGO-OHARE  CLEAR     11  -5  48 W8        30.59R WCI  -1
CHICAGO-MIDWAY CLEAR     15  -2  46 SW10      30.61R WCI   2
AURORA         CLEAR      7  -4  60 W8        30.62R WCI  -6
LANSING*       CLEAR     13  -2  51 SW8       30.62R WCI   1
JOLIET*        CLEAR     10  -4  52 W6        30.64R WCI   1
WAUKEGAN       CLEAR     13  -3  49 SW7       30.56S WCI   3
DUPAGE AIRPORT CLEAR     10  -5  50 W7        30.59R WCI  -1
KANKAKEE*      CLEAR     10  -1  63 SW6       30.64S WCI   0
WHEELING       CLEAR     13  -6  42 SW7       30.60S WCI   3
MORRIS*        CLEAR      8  -2  65 W7        30.63S WCI  -4
ROMEOVILLE*    CLEAR     10  -4  54 W8        30.62R WCI  -3
NORTHERLY ISL    N/A     17  -3  41 W3          N/A
$$

LMZ740>746-280000-
SOUTHERN LAKE MICHIGAN

STATION/POSITION SKY/WX   TEMP    WIND        PRES    VSBY  WAVE
                          AIR SEA DIR/SP/G                  HT/PER
                          (F)     (DEG/KT/KT) (MB)    (MI)  (FT/S)
WAUKEGAN HARBOR            14     240/  9/ 12   N/A
HARRISON CRIB              16     270/  8/ 11   N/A
BURNHAM HARBOR             17     260/  5/ 10   N/A
CALUMET HARBOR             16     230/  4/ 10 1034.9R
MICHIGAN CITY              14     200/  4/  4   N/A
$$

ILZ025>027-034>036-040-047-049-050-058-095>099-280000-
WEST-CENTRAL ILLINOIS

CITY           SKY/WX    TMP DP  RH WIND       PRES   REMARKS
QUINCY         CLEAR     11  -4  51 E3        30.61F
GALESBURG*     CLEAR      8  -3  60 CALM      30.62F
MACOMB*        CLEAR      8  -1  67 NE5       30.65F WCI   0
JACKSONVILLE*  CLEAR     13  -1  52 CALM      30.64S
PITTSFIELD*    CLEAR     15  -1  49 CALM      30.63S
$$

ILZ028>032-037-038-041>044-048-051>054-059>061-280000-
CENTRAL ILLINOIS

CITY           SKY/WX    TMP DP  RH WIND       PRES   REMARKS
PONTIAC        CLEAR     12   0  58 CALM      30.65R
BLOOMINGTON    CLEAR     15  -1  49 CALM      30.62S
DECATUR        CLEAR     12   2  64 SE6       30.64R WCI   3
PEORIA         CLEAR     15  -3  44 W7        30.64R WCI   5
LACON*         CLEAR     10  -4  52 N5        30.64F WCI   2
LINCOLN*       PTCLDY    16   3  58 S6        30.67R WCI   7
SPRINGFIELD    CLEAR     11  -1  58 SW7       30.65R WCI   0
TAYLORVILLE    CLEAR     12   1  62 CALM      30.65R
$$

ILZ033-039-045-046-055>057-062-063-280000-
EAST-CENTRAL ILLINOIS

CITY           SKY/WX    TMP DP  RH WIND       PRES   REMARKS
CHAMPAIGN      CLEAR     10   0  63 SW7       30.63R WCI  -1
DANVILLE*      MOCLDY    15   3  59 N3        30.59S
RANTOUL*       CLEAR     16   2  56 NW5       30.62S WCI   8
MATTOON        CLEAR     12   0  58 N6        30.63R WCI   3
PARIS*         CLEAR     12   2  64 CALM      30.65R
$$

ILZ079-100>102-280000-
SOUTHWEST ILLINOIS

CITY           SKY/WX    TMP DP  RH WIND       PRES   REMARKS
BELLEVILLE     PTCLDY    17   3  52 NE6       30.62S WCI   9
CAHOKIA*       PTCLDY    19   3  49 N9        30.63S WCI   8
SPARTA*        CLOUDY    19   7  60 NE6       30.63R WCI  11
$$

ILZ064>066-069>071-074>076-080>082-084>086-088>090-092>094-280000-
SOUTH-CENTRAL ILLINOIS

CITY           SKY/WX    TMP DP  RH WIND       PRES   REMARKS
CARBONDALE     CLOUDY    21   7  54 NE6       30.62S WCI  13
CAIRO*         CLOUDY    27  11  51 N3        30.63R
EFFINGHAM*     CLEAR     15  -1  48 CALM      30.66R
MARION         CLOUDY    23   9  54 NE9       30.62F WCI  13
MT. VERNON     PTCLDY    19   3  49 N7        30.63S WCI  10
CENTRALIA*     PTCLDY    17   2  53 N7        30.63S WCI   7
SALEM*         CLEAR     17   2  51 NE5       30.65R WCI  10
METROPOLIS*    CLOUDY    25  11  56 E7        30.61R WCI  17
$$

ILZ067-068-072-073-078-083-087-091-280000-
SOUTHEAST ILLINOIS

CITY           SKY/WX    TMP DP  RH WIND       PRES   REMARKS
LAWRENCEVILLE  CLEAR     20   3  48 N5        30.65R WCI  13
FLORA*         CLEAR     16   2  55 N3        30.66R
FAIRFIELD*     PTCLDY    18   4  53 N3        30.64S
HARRISBURG*    CLOUDY    21  10  63 NE5       30.64F WCI  15
ROBINSON*      CLEAR     17   2  51 NW5       30.67R WCI  10
CARMI*         PTCLDY    22  11  63 N6        30.64S WCI  15
$$

ABBREVIATIONS USED IN REMARKS
   TC - TEMPERATURE IN CELSIUS
  WCI - WIND CHILL INDEX
   HX - HEAT INDEX
  VSB - VISIBILITY
$$



USA.gov is the U.S. government's official web portal to all federal, state and local government web resources and services.